Regional Weather Roundup
Issued by NWS

Home | Current Version | Previous Version | Text Only | Print | Product List | Glossary On
Versions: 1 2 3 4 5 6 7 8 9 10 11 12 13 14 15 16 17 18 19 20 21 22 23 24 25 26 27 28 29 30 31 32 33 34 35 36 37 38 39 40 41 42 43 44 45 46 47 48 49 50
000
ASUS46 KPQR 281110
RWROR

OREGON REGIONAL WEATHER ROUNDUP
NATIONAL WEATHER SERVICE PORTLAND OR
400 AM PDT TUE MAR 28 2017

NOTE: "FAIR" INDICATES FEW OR NO CLOUDS BELOW 12,000 FEET WITH
NO SIGNIFICANT WEATHER AND/OR OBSTRUCTIONS TO VISIBILITY.

ORZ001>013-281200-
NORTHWEST OREGON


CITY           SKY/WX    TMP DP  RH WIND       PRES   REMARKS
ASTORIA        LGT RAIN  48  44  86 S13G20    30.23F
NEWPORT        DRIZZLE   46  45  93 S9        30.35F
PORTLAND       LGT RAIN  47  41  80 S12       30.32F
VANCOUVER WA   CLOUDY    47  43  86 VRB5      30.32F
SCAPPOOSE      CLOUDY    46  43  89 SE6       30.30F
HILLSBORO      CLOUDY    46  43  89 S9        30.30F
AURORA         CLOUDY    47  40  76 S10G18    30.33F
MCMINNVILLE    CLOUDY    46  41  82 S9        30.32F
SALEM          CLOUDY    46  40  79 S10       30.32F
CORVALLIS      CLOUDY    45  41  87 S5        30.35S
EUGENE         CLOUDY    45  42  89 S6        30.36F
$$

ORZ021-028-281200-
SOUTHWEST OREGON


CITY           SKY/WX    TMP DP  RH WIND       PRES   REMARKS
NORTH BEND     CLOUDY    46  45  93 S8        30.38F
BROOKINGS      CLOUDY    46  41  82 CALM      30.40R
ROSEBURG       LGT RAIN  44  41  89 CALM      30.39R
SEXTON SUMMIT  CLOUDY    35  30  82 W3        30.31S
MEDFORD        CLOUDY    43  40  89 CALM      30.37S
$$

ORZ014>016-041-281200-
COLUMBIA GORGE


CITY           SKY/WX    TMP DP  RH WIND       PRES   REMARKS
TROUTDALE      CLOUDY    46  44  93 E3        30.33F
HOOD RIVER     MOCLDY    43  39  87 CALM      30.30S
THE DALLES     CLOUDY    47  39  74 SW5       30.30S
$$

ORZ029>031-041-044-049-050-061>064-502-503-505>511-281200-
EASTERN OREGON


CITY           SKY/WX    TMP DP  RH WIND       PRES   REMARKS
REDMOND        CLOUDY    35  29  78 SE3       30.28S
BEND           CLOUDY    36  30  80 CALM      30.28S
PRINEVILLE     CLOUDY    36  32  87 CALM      30.28R
KLAMATH FALLS  CLEAR     32  29  88 CALM      30.30S
LAKEVIEW       PTCLDY    28  25  86 CALM      30.27F
HERMISTON      CLOUDY    46  37  71 SW12      30.27F
PENDLETON      CLOUDY    40  35  83 S7        30.26F
JOHN DAY       CLOUDY    33  30  89 CALM      30.26S
MEACHAM        CLOUDY    32  29  88 CALM      30.23F
LA GRANDE      PTCLDY    36  32  87 CALM      30.26S
BAKER CITY     MOCLDY    29  27  92 CALM      30.26R
BURNS          MOCLDY    29  26  89 W5        30.26R WCI  24
ROME             N/A     30  25  81 SE8       30.23F WCI  22
ONTARIO        PTCLDY    37  31  78 W7        30.27S WCI  32
$$



USA.gov is the U.S. government's official web portal to all federal, state and local government web resources and services.